TimeMDT,TemperatureF,Dew PointF,Humidity,Sea Level PressureIn,VisibilityMPH,Wind Direction,Wind SpeedMPH,Gust SpeedMPH,PrecipitationIn,Events,Conditions,WindDirDegrees,DateUTC
12:53 AM,66.0,54.0,65,29.79,10.0,South,5.8,-,N/A,,Clear,190,2013-08-04 06:53:00
1:53 AM,64.0,53.1,67,29.78,10.0,WSW,3.5,-,N/A,,Clear,250,2013-08-04 07:53:00
2:53 AM,60.1,54.0,80,29.80,10.0,Calm,Calm,-,N/A,,Clear,0,2013-08-04 08:53:00
3:53 AM,61.0,53.1,75,29.78,10.0,Calm,Calm,-,N/A,,Clear,0,2013-08-04 09:53:00
4:53 AM,57.0,53.1,87,29.83,10.0,Calm,Calm,-,N/A,,Clear,0,2013-08-04 10:53:00
5:53 AM,57.0,53.1,87,29.83,10.0,Calm,Calm,-,N/A,,Clear,0,2013-08-04 11:53:00
6:53 AM,55.9,53.1,90,29.88,10.0,Calm,Calm,-,N/A,,Scattered Clouds,0,2013-08-04 12:53:00
7:53 AM,61.0,55.0,81,29.87,10.0,Calm,Calm,-,N/A,,Scattered Clouds,0,2013-08-04 13:53:00
8:53 AM,66.0,55.0,68,29.87,10.0,WSW,3.5,-,N/A,,Partly Cloudy,250,2013-08-04 14:53:00
9:53 AM,72.0,54.0,53,29.85,10.0,SW,4.6,-,N/A,,Partly Cloudy,220,2013-08-04 15:53:00
10:53 AM,78.1,48.9,36,29.81,10.0,WSW,4.6,-,N/A,,Scattered Clouds,250,2013-08-04 16:53:00
11:53 AM,82.0,46.0,28,29.77,10.0,SSW,8.1,-,N/A,,Clear,210,2013-08-04 17:53:00
12:53 PM,82.9,46.9,28,29.74,10.0,Variable,6.9,-,N/A,,Clear,0,2013-08-04 18:53:00
1:53 PM,84.0,46.9,27,29.73,10.0,Variable,5.8,-,N/A,,Partly Cloudy,0,2013-08-04 19:53:00
2:53 PM,87.1,46.9,25,29.71,10.0,WSW,9.2,-,N/A,,Clear,240,2013-08-04 20:53:00
3:53 PM,86.0,46.0,25,29.69,10.0,WSW,12.7,17.3,N/A,,Partly Cloudy,240,2013-08-04 21:53:00
4:25 PM,87.8,46.4,24,30.22,10.0,WSW,9.2,-,N/A,Thunderstorm,Partly Cloudy,250,2013-08-04 22:25:00
4:45 PM,84.2,46.4,27,30.22,10.0,WSW,19.6,25.3,N/A,,Mostly Cloudy,250,2013-08-04 22:45:00
4:53 PM,82.9,48.9,31,29.75,10.0,West,15.0,25.3,0.00,Rain,Light Rain,260,2013-08-04 22:53:00
5:06 PM,78.8,51.8,39,30.24,10.0,WSW,17.3,21.9,0.00,Rain-Thunderstorm,Light Rain,250,2013-08-04 23:06:00
5:53 PM,79.0,50.0,36,29.80,10.0,WSW,21.9,31.1,0.00,,Mostly Cloudy,240,2013-08-04 23:53:00
6:26 PM,80.6,48.2,32,30.25,10.0,WSW,17.3,-,N/A,Thunderstorm,Clear,240,2013-08-05 00:26:00
6:53 PM,78.1,48.9,36,29.83,10.0,WNW,17.3,-,N/A,Thunderstorm,Partly Cloudy,290,2013-08-05 00:53:00
7:04 PM,78.8,48.2,34,30.27,10.0,WNW,12.7,21.9,N/A,,Mostly Cloudy,290,2013-08-05 01:04:00
7:53 PM,73.0,51.1,46,29.85,10.0,ENE,13.8,-,N/A,,Overcast,70,2013-08-05 01:53:00
8:53 PM,69.1,51.1,53,29.85,10.0,East,6.9,-,N/A,,Scattered Clouds,80,2013-08-05 02:53:00
9:53 PM,66.9,54.0,63,29.85,10.0,ENE,5.8,-,N/A,,Clear,60,2013-08-05 03:53:00
10:53 PM,64.9,53.1,65,29.82,10.0,ENE,6.9,-,N/A,,Clear,60,2013-08-05 04:53:00
11:53 PM,64.9,54.0,68,29.78,10.0,NNE,5.8,-,N/A,,Clear,20,2013-08-05 05:53:00